Fort Madison, IA

2:40 AM CDT on May 26, 2017 (GMT -0500)
Fort Madison Municipal

Weather History for KFSW - September, 2012

Change the Weather History Date:

Sunday, September 2, 2012

  Actual Average Record
Temperature  
Mean Temperature 79 °F -  
Max Temperature 87 °F 82 °F 100 °F (2000)
Min Temperature 71 °F 62 °F 47 °F (1974)
Cooling Degree Days 14    
Growing Degree Days 29 (Base 50)    
Moisture  
Dew Point 75 °F    
Average Humidity 91    
Maximum Humidity 100    
Minimum Humidity 70    
Precipitation  
Precipitation 0.02 in - - ()
Sea Level Pressure  
Sea Level Pressure 29.88 in    
Wind  
Wind Speed 7 mph (NNE)    
Max Wind Speed 12 mph    
Max Gust Speed 18 mph    
Visibility 7 miles    
Events      
Averages and records for this station are not official NWS values.
T = Trace of Precipitation, MM = Missing Value Source: NWS Daily Summary

Daily Weather History Graph

Daily Weather History Graph

Search for Another Location

Airport or City:

Trip Planner

Search our weather history database for the weather conditions in past years. The results will help you decide how hot, cold, wet, or windy it might be!

Date:

Astronomy

Sep. 02, 2012 Rise Set
Actual Time 6:33 AM CDT 7:35 PM CDT
Civil Twilight 6:05 AM CDT 8:02 PM CDT
Nautical Twilight 5:32 AM CDT 8:36 PM CDT
Astronomical Twilight 4:57 AM CDT 9:10 PM CDT
Moon 8:21 PM CDT (9/2) 8:43 AM CDT (9/2)
Length of Visible Light 13h 57m
Length of Day
13h 01m
Waning Gibbous, 95% of the Moon is Illuminated
Sep 2
Waning Gibbous
Sep 8
Last Quarter
Sep 15
New
Sep 22
First Quarter
Sep 29
Full

Hourly Weather History & Observations

Time (CDT) Temp. Heat Index Dew Point Humidity Pressure Visibility Wind Dir Wind Speed Gust Speed Precip Events Conditions
12:15 AM 73.4 °F - 73.4 °F 100% 29.88 in 10.0 mi NE 11.5 mph 18.4 mph N/A   Overcast
12:35 AM 73.4 °F - 73.4 °F 100% 29.88 in 10.0 mi NE 8.1 mph - N/A   Overcast
12:55 AM 73.4 °F - 73.4 °F 100% 29.88 in 10.0 mi NNE 9.2 mph - N/A   Overcast
1:15 AM 73.4 °F - 73.4 °F 100% 29.88 in 5.0 mi NNE 6.9 mph - N/A   Overcast
1:35 AM 73.4 °F - 73.4 °F 100% 29.88 in 3.0 mi NNE 6.9 mph - N/A   Drizzle
1:55 AM 71.6 °F - 71.6 °F 100% 29.88 in 5.0 mi North 6.9 mph - N/A   Overcast
2:15 AM 71.6 °F - 71.6 °F 100% 29.87 in 5.0 mi NNE 8.1 mph - 0.01 in   Overcast
2:35 AM 71.6 °F - 71.6 °F 100% 29.86 in 4.0 mi NNE 4.6 mph - 0.02 in   Drizzle
2:55 AM 71.6 °F - 71.6 °F 100% 29.86 in 7.0 mi NE 6.9 mph - 0.02 in   Mostly Cloudy
3:15 AM 71.6 °F - 71.6 °F 100% 29.86 in 7.0 mi North 6.9 mph - N/A   Overcast
3:35 AM 71.6 °F - 71.6 °F 100% 29.86 in 7.0 mi North 6.9 mph - N/A   Overcast
3:55 AM 71.6 °F - 71.6 °F 100% 29.85 in 7.0 mi North 9.2 mph - N/A   Overcast
4:15 AM 71.6 °F - 71.6 °F 100% 29.85 in 7.0 mi North 8.1 mph - N/A   Overcast
4:35 AM 71.6 °F - 71.6 °F 100% 29.85 in 4.0 mi North 8.1 mph - N/A   Overcast
4:55 AM 71.6 °F - 71.6 °F 100% 29.85 in 5.0 mi North 5.8 mph - N/A   Overcast
5:15 AM 71.6 °F - 71.6 °F 100% 29.85 in 7.0 mi North 5.8 mph - N/A   Overcast
5:35 AM 71.6 °F - 71.6 °F 100% 29.86 in 7.0 mi North 6.9 mph - N/A   Overcast
5:55 AM 71.6 °F - 71.6 °F 100% 29.86 in 5.0 mi North 8.1 mph - N/A   Overcast
6:15 AM 71.6 °F - 71.6 °F 100% 29.87 in 3.0 mi North 6.9 mph - N/A   Overcast
6:35 AM 71.6 °F - 71.6 °F 100% 29.88 in 5.0 mi North 6.9 mph - N/A   Overcast
6:55 AM 71.6 °F - 71.6 °F 100% 29.89 in 5.0 mi North 6.9 mph - N/A   Overcast
7:15 AM 71.6 °F - 71.6 °F 100% 29.89 in 4.0 mi North 5.8 mph - N/A   Overcast
7:35 AM 71.6 °F - 71.6 °F 100% 29.89 in 4.0 mi North 3.5 mph - N/A   Overcast
7:55 AM 71.6 °F - 71.6 °F 100% 29.90 in 5.0 mi North 5.8 mph - N/A   Overcast
8:15 AM 71.6 °F - 71.6 °F 100% 29.90 in 5.0 mi North 6.9 mph - N/A   Overcast
8:35 AM 71.6 °F - 71.6 °F 100% 29.90 in 5.0 mi North 6.9 mph - N/A   Overcast
8:55 AM 73.4 °F - 73.4 °F 100% 29.90 in 5.0 mi North 6.9 mph - N/A   Overcast
9:15 AM 73.4 °F - 73.4 °F 100% 29.90 in 5.0 mi North 8.1 mph - N/A   Overcast
9:35 AM 75.2 °F - 73.4 °F 94% 29.90 in 7.0 mi North 6.9 mph - N/A   Overcast
9:55 AM 75.2 °F - 73.4 °F 94% 29.91 in 5.0 mi North 5.8 mph - N/A   Overcast
10:15 AM 75.2 °F - 75.2 °F 100% 29.91 in 5.0 mi North 5.8 mph - N/A   Overcast
10:35 AM 75.2 °F - 75.2 °F 100% 29.91 in 7.0 mi North 5.8 mph - N/A   Overcast
10:55 AM 77.0 °F - 75.2 °F 94% 29.91 in 7.0 mi NNE 6.9 mph - N/A   Overcast
11:15 AM 78.8 °F - 75.2 °F 89% 29.91 in 7.0 mi NNE 5.8 mph - N/A   Overcast
11:35 AM 80.6 °F 86.2 °F 75.2 °F 84% 29.91 in 7.0 mi NE 8.1 mph - N/A   Overcast
11:55 AM 78.8 °F - 75.2 °F 89% 29.91 in 7.0 mi NE 9.2 mph - N/A   Overcast
12:15 PM 80.6 °F 87.1 °F 77.0 °F 89% 29.91 in 10.0 mi NE 6.9 mph - N/A   Overcast
12:35 PM 82.4 °F 90.9 °F 77.0 °F 84% 29.91 in 7.0 mi North 9.2 mph - N/A   Overcast
12:55 PM 82.4 °F 90.9 °F 77.0 °F 84% 29.90 in 10.0 mi NNE 4.6 mph - N/A   Overcast
1:15 PM 84.2 °F 94.1 °F 77.0 °F 79% 29.90 in 7.0 mi North 9.2 mph - N/A   Mostly Cloudy
1:35 PM 86.0 °F 96.9 °F 77.0 °F 74% 29.89 in 10.0 mi NNE 5.8 mph - N/A   Mostly Cloudy
1:55 PM 86.0 °F 96.9 °F 77.0 °F 74% 29.89 in 10.0 mi North 8.1 mph - N/A   Mostly Cloudy
2:15 PM 82.4 °F 92.4 °F 78.8 °F 89% 29.89 in 7.0 mi North 5.8 mph - N/A   Mostly Cloudy
2:35 PM 86.0 °F 99.3 °F 78.8 °F 79% 29.88 in 10.0 mi NNW 6.9 mph - N/A   Mostly Cloudy
2:55 PM 84.2 °F 94.1 °F 77.0 °F 79% 29.88 in 10.0 mi North 8.1 mph - N/A   Overcast
3:15 PM 86.0 °F 99.3 °F 78.8 °F 79% 29.88 in 10.0 mi North 6.9 mph - N/A   Mostly Cloudy
3:35 PM 87.8 °F 102.5 °F 78.8 °F 75% 29.88 in 10.0 mi North 6.9 mph - N/A   Mostly Cloudy
3:55 PM 84.2 °F 94.1 °F 77.0 °F 79% 29.88 in 10.0 mi North 5.8 mph - N/A   Overcast
4:15 PM 86.0 °F 99.3 °F 78.8 °F 79% 29.88 in 10.0 mi North 9.2 mph - N/A   Overcast
4:35 PM 86.0 °F 96.9 °F 77.0 °F 74% 29.89 in 10.0 mi North 6.9 mph - N/A   Mostly Cloudy
4:55 PM 87.8 °F 102.5 °F 78.8 °F 75% 29.88 in 10.0 mi NNE 4.6 mph - N/A   Mostly Cloudy
5:15 PM 87.8 °F 99.7 °F 77.0 °F 70% 29.88 in 10.0 mi NNE 8.1 mph - N/A   Scattered Clouds
5:35 PM 87.8 °F 99.7 °F 77.0 °F 70% 29.88 in 10.0 mi NNE 8.1 mph - N/A   Scattered Clouds
5:55 PM 86.0 °F 96.9 °F 77.0 °F 74% 29.88 in 10.0 mi NNE 4.6 mph - N/A   Scattered Clouds
6:15 PM 84.2 °F 94.1 °F 77.0 °F 79% 29.88 in 10.0 mi North 8.1 mph - N/A   Scattered Clouds
6:35 PM 84.2 °F 94.1 °F 77.0 °F 79% 29.88 in 10.0 mi North 4.6 mph - N/A   Clear
6:55 PM 84.2 °F 92.3 °F 75.2 °F 74% 29.88 in 10.0 mi North 3.5 mph - N/A   Clear
7:15 PM 82.4 °F 90.9 °F 77.0 °F 84% 29.88 in 10.0 mi NNE 3.5 mph - N/A   Clear
7:35 PM 82.4 °F 90.9 °F 77.0 °F 84% 29.88 in 10.0 mi Calm Calm - N/A   Clear
7:55 PM 78.8 °F - 75.2 °F 89% 29.88 in 7.0 mi Calm Calm - N/A   Clear
8:15 PM 78.8 °F - 75.2 °F 89% 29.89 in 5.0 mi Calm Calm - N/A   Scattered Clouds
8:35 PM 77.0 °F - 75.2 °F 94% 29.90 in 7.0 mi Calm Calm - N/A   Clear
8:55 PM 75.2 °F - 75.2 °F 100% 29.90 in 7.0 mi Calm Calm - N/A   Clear
9:15 PM 75.2 °F - 75.2 °F 100% 29.91 in 7.0 mi Calm Calm - N/A   Clear